, LA

(GMT )
Venice

Weather History for K1B7 - April, 2013

Change the Weather History Date:

Monday, April 29, 2013

  Actual Average Record
Temperature  
Mean Temperature 72 °F -  
Max Temperature 77 °F - - ()
Min Temperature 66 °F - - ()
Cooling Degree Days 6    
Growing Degree Days 22 (Base 50)    
Moisture  
Dew Point 70 °F    
Average Humidity 90    
Maximum Humidity 100    
Minimum Humidity 78    
Precipitation  
Precipitation 0.00 in - - ()
Sea Level Pressure  
Sea Level Pressure 29.93 in    
Wind  
Wind Speed 8 mph (ENE)    
Max Wind Speed 15 mph    
Max Gust Speed -    
Visibility 10 miles    
Events      
Averages and records for this station are not official NWS values.
T = Trace of Precipitation, MM = Missing Value Source: NWS Daily Summary

Daily Weather History Graph

Daily Weather History Graph

Search for Another Location

Airport or City:

Trip Planner

Search our weather history database for the weather conditions in past years. The results will help you decide how hot, cold, wet, or windy it might be!

Date:

Astronomy

Apr. 29, 2013 Rise Set
Actual Time 6:17 AM CDT 7:33 PM CDT
Civil Twilight 5:52 AM CDT 7:58 PM CDT
Nautical Twilight 5:22 AM CDT 8:28 PM CDT
Astronomical Twilight 4:51 AM CDT 8:58 PM CDT
Moon 11:51 PM CDT (4/29) 9:45 AM CDT (4/29)
Length of Visible Light 14h 05m
Length of Day
13h 15m
Waning Gibbous, 80% of the Moon is Illuminated
Apr 29
Waning Gibbous
May 2
Last Quarter
May 9
New
May 17
First Quarter
May 24
Full

Hourly Weather History & Observations

Time (CDT) Temp. Dew Point Humidity Pressure Visibility Wind Dir Wind Speed Gust Speed Precip Events Conditions
4:56 AM 66.2 °F 64.4 °F 94% 29.92 in 10.0 mi East 9.2 mph - N/A   Clear
6:02 AM 66.2 °F 64.4 °F 94% 29.92 in 10.0 mi East 5.8 mph - N/A   Scattered Clouds
6:46 AM 66.2 °F 66.2 °F 100% 29.93 in 10.0 mi East 5.8 mph - N/A   Clear
7:24 AM 68.0 °F 68.0 °F 100% 29.94 in 10.0 mi East 5.8 mph - N/A   Clear
7:57 AM 69.8 °F 68.0 °F 94% 29.95 in 10.0 mi NE 5.8 mph - N/A   Clear
8:51 AM 71.6 °F 69.8 °F 94% 29.95 in 10.0 mi East 5.8 mph - N/A   Clear
9:47 AM 73.4 °F 71.6 °F 94% 29.96 in 10.0 mi East 9.2 mph - N/A   Clear
10:52 AM 73.4 °F 69.8 °F 88% 29.96 in 10.0 mi East 8.1 mph - N/A   Clear
11:45 AM 75.2 °F 69.8 °F 83% 29.96 in 10.0 mi East 3.5 mph - N/A   Clear
12:30 PM 75.2 °F 71.6 °F 89% 29.95 in 10.0 mi NNE 10.4 mph - N/A   Scattered Clouds
1:16 PM 77.0 °F 73.4 °F 89% 29.94 in 10.0 mi NE 12.7 mph - N/A   Mostly Cloudy
1:56 PM 77.0 °F 73.4 °F 89% 29.94 in 10.0 mi NE 15.0 mph - N/A   Mostly Cloudy
2:13 PM 77.0 °F 73.4 °F 89% 29.94 in 9.0 mi ENE 10.4 mph - N/A   Partly Cloudy
2:49 PM 75.2 °F 71.6 °F 89% 29.92 in 10.0 mi East 15.0 mph - N/A   Scattered Clouds
2:54 PM 73.4 °F 69.8 °F 88% 29.92 in 10.0 mi East 12.7 mph - N/A   Scattered Clouds
3:04 PM 73.4 °F 71.6 °F 94% 29.93 in 10.0 mi ENE 11.5 mph - N/A   Mostly Cloudy
3:26 PM 73.4 °F 66.2 °F 78% 29.93 in 10.0 mi East 4.6 mph - N/A   Mostly Cloudy
3:55 PM 71.6 °F 66.2 °F 83% 29.91 in 10.0 mi ENE 6.9 mph - N/A   Partly Cloudy
4:45 PM 75.2 °F 71.6 °F 89% 29.90 in 10.0 mi ENE 8.1 mph - N/A   Clear
5:32 PM 75.2 °F 71.6 °F 89% 29.90 in 10.0 mi ENE 9.2 mph - N/A   Clear